{"data":{"norad_id":59856,"epoch":"2026-09-21T16:00:02.873952Z","epoch_age_seconds":73685,"freshness":"FRESH","line1":"1 59856U 24097X   26264.66669993 -.00000259  00000+0  11645-6 0  9998","line2":"2 59856  43.0027 247.1717 0000905 270.2173  89.8575 15.27571798131892","mean_motion":15.27571798,"eccentricity":9.05e-5,"inclination_deg":43.0027,"raan_deg":247.1717,"arg_perigee_deg":270.2173,"mean_anomaly_deg":89.8575,"bstar":1.1645e-7,"rev_number":13189,"period_min":94.267254860645,"perigee_km":482.45271632384,"apogee_km":483.69459545256,"semimajor_km":6861.2106558882,"source":"CELESTRAK","updated_at":"2026-09-22T09:00:49.099739Z"}}